Time,TemperatureF,DewpointF,PressureIn,WindDirection,WindDirectionDegrees,WindSpeedMPH,WindSpeedGustMPH,Humidity,HourlyPrecipIn,Conditions,Clouds,dailyrainin,SolarRadiationWatts/m^2,SoftwareType,DateUTC
2013-04-27 00:03:00,71.0,66.0,-100.00,ENE,66,5.0,-999.0,84,0.00,,,-99.99,0.000000,,2013-04-27 04:03:00,
2013-04-27 00:13:00,71.0,66.0,-100.00,ENE,62,4.0,-999.0,85,0.00,,,-99.99,0.000000,,2013-04-27 04:13:00,
2013-04-27 00:23:00,71.0,66.0,-100.00,ENE,62,4.0,-999.0,85,0.00,,,-99.99,0.000000,,2013-04-27 04:23:00,
2013-04-27 00:33:00,71.0,67.0,-100.00,ENE,58,4.0,-999.0,86,0.00,,,-99.99,0.000000,,2013-04-27 04:33:00,
2013-04-27 00:43:00,70.0,67.0,-100.00,ENE,66,3.0,-999.0,87,0.00,,,-99.99,0.000000,,2013-04-27 04:43:00,
2013-04-27 00:53:00,70.0,67.0,-100.00,ENE,66,3.0,-999.0,87,0.00,,,-99.99,0.000000,,2013-04-27 04:53:00,
2013-04-27 01:02:00,70.0,66.0,-100.00,ENE,62,2.0,-999.0,89,0.00,,,-99.99,0.000000,,2013-04-27 05:02:00,
2013-04-27 01:12:00,69.0,66.0,-100.00,ENE,62,3.0,-999.0,90,0.00,,,-99.99,0.000000,,2013-04-27 05:12:00,
2013-04-27 01:22:00,69.0,66.0,-100.00,ENE,62,3.0,-999.0,90,0.00,,,-99.99,0.000000,,2013-04-27 05:22:00,
2013-04-27 01:32:00,69.0,66.0,-100.00,ENE,75,4.0,-999.0,91,0.00,,,-99.99,0.000000,,2013-04-27 05:32:00,
2013-04-27 01:42:00,69.0,66.0,-100.00,East,79,4.0,-999.0,91,0.00,,,-99.99,0.000000,,2013-04-27 05:42:00,
2013-04-27 01:52:00,69.0,66.0,-100.00,East,79,4.0,-999.0,91,0.00,,,-99.99,0.000000,,2013-04-27 05:52:00,
2013-04-27 02:02:00,68.0,66.0,-100.00,ENE,77,4.0,-999.0,91,0.00,,,-99.99,0.000000,,2013-04-27 06:02:00,
2013-04-27 02:12:00,68.0,66.0,-100.00,East,83,4.0,-999.0,92,0.00,,,-99.99,0.000000,,2013-04-27 06:12:00,
2013-04-27 02:22:00,68.0,66.0,-100.00,East,83,4.0,-999.0,92,0.00,,,-99.99,0.000000,,2013-04-27 06:22:00,
2013-04-27 02:32:00,68.0,66.0,-100.00,ENE,73,4.0,-999.0,92,0.00,,,-99.99,0.000000,,2013-04-27 06:32:00,
2013-04-27 02:42:00,68.0,66.0,-100.00,ENE,78,3.0,-999.0,92,0.00,,,-99.99,0.000000,,2013-04-27 06:42:00,
2013-04-27 02:52:00,68.0,66.0,-100.00,ENE,78,3.0,-999.0,92,0.00,,,-99.99,0.000000,,2013-04-27 06:52:00,
2013-04-27 03:01:00,68.0,65.0,-100.00,ENE,76,3.0,-999.0,92,0.00,,,-99.99,0.000000,,2013-04-27 07:01:00,
2013-04-27 03:11:00,67.0,66.0,-100.00,East,84,3.0,-999.0,93,0.00,,,-99.99,0.000000,,2013-04-27 07:11:00,
2013-04-27 03:21:00,67.0,66.0,-100.00,East,84,3.0,-999.0,93,0.00,,,-99.99,0.000000,,2013-04-27 07:21:00,
2013-04-27 03:32:00,67.0,65.0,-100.00,ENE,77,2.0,-999.0,93,0.00,,,-99.99,0.000000,,2013-04-27 07:32:00,
2013-04-27 03:42:00,67.0,65.0,-100.00,ENE,77,2.0,-999.0,94,0.00,,,-99.99,0.000000,,2013-04-27 07:42:00,
2013-04-27 03:52:00,67.0,65.0,-100.00,ENE,77,2.0,-999.0,94,0.00,,,-99.99,0.000000,,2013-04-27 07:52:00,
2013-04-27 04:01:00,67.0,65.0,-100.00,East,80,1.0,-999.0,94,0.00,,,-99.99,0.000000,,2013-04-27 08:01:00,
2013-04-27 04:11:00,66.0,65.0,-100.00,NNE,30,1.0,-999.0,94,0.00,,,-99.99,0.000000,,2013-04-27 08:11:00,
2013-04-27 04:21:00,66.0,65.0,-100.00,NNE,30,1.0,-999.0,94,0.00,,,-99.99,0.000000,,2013-04-27 08:21:00,
2013-04-27 04:33:00,66.0,64.0,-100.00,ENE,70,1.0,-999.0,95,0.00,,,-99.99,0.000000,,2013-04-27 08:33:00,
2013-04-27 04:41:00,66.0,64.0,-100.00,NE,35,1.0,-999.0,95,0.00,,,-99.99,0.000000,,2013-04-27 08:41:00,
2013-04-27 04:52:00,66.0,64.0,-100.00,NE,35,1.0,-999.0,95,0.00,,,-99.99,0.000000,,2013-04-27 08:52:00,
2013-04-27 05:01:00,66.0,64.0,-100.00,NNE,15,2.0,-999.0,95,0.00,,,-99.99,0.000000,,2013-04-27 09:01:00,
2013-04-27 05:11:00,66.0,64.0,-100.00,North,11,2.0,-999.0,95,0.00,,,-99.99,0.000000,,2013-04-27 09:11:00,
2013-04-27 05:21:00,66.0,64.0,-100.00,North,11,2.0,-999.0,95,0.00,,,-99.99,0.000000,,2013-04-27 09:21:00,
2013-04-27 05:33:00,65.0,64.0,-100.00,NNE,20,3.0,-999.0,95,0.00,,,-99.99,0.000000,,2013-04-27 09:33:00,
2013-04-27 05:42:00,66.0,64.0,-100.00,NE,41,3.0,-999.0,95,0.00,,,-99.99,0.000000,,2013-04-27 09:42:00,
2013-04-27 05:53:00,66.0,64.0,-100.00,NE,41,3.0,-999.0,95,0.00,,,-99.99,0.000000,,2013-04-27 09:53:00,
2013-04-27 06:03:00,65.0,64.0,-100.00,NE,46,2.0,-999.0,96,0.00,,,-99.99,0.000000,,2013-04-27 10:03:00,
2013-04-27 06:12:00,65.0,64.0,-100.00,ENE,62,2.0,-999.0,96,0.00,,,-99.99,0.000000,,2013-04-27 10:12:00,
2013-04-27 06:22:00,65.0,64.0,-100.00,ENE,62,2.0,-999.0,96,0.00,,,-99.99,0.000000,,2013-04-27 10:22:00,
2013-04-27 06:32:00,65.0,64.0,-100.00,East,94,1.0,-999.0,96,0.00,,,-99.99,0.000000,,2013-04-27 10:32:00,
2013-04-27 06:42:00,65.0,64.0,-100.00,ENE,72,2.0,-999.0,96,0.00,,,-99.99,0.000000,,2013-04-27 10:42:00,
2013-04-27 06:52:00,65.0,64.0,-100.00,ENE,72,2.0,-999.0,96,0.00,,,-99.99,0.000000,,2013-04-27 10:52:00,
2013-04-27 07:02:00,65.0,64.0,-100.00,ENE,75,3.0,-999.0,96,0.00,,,-99.99,1.300000,,2013-04-27 11:02:00,
2013-04-27 07:12:00,65.0,64.0,-100.00,ENE,73,2.0,-999.0,96,0.00,,,-99.99,8.200000,,2013-04-27 11:12:00,
2013-04-27 07:22:00,65.0,64.0,-100.00,ENE,73,2.0,-999.0,96,0.00,,,-99.99,8.200000,,2013-04-27 11:22:00,
2013-04-27 07:32:00,65.0,64.0,-100.00,East,81,2.0,-999.0,96,0.00,,,-99.99,29.600000,,2013-04-27 11:32:00,
2013-04-27 07:42:00,66.0,65.0,-100.00,ENE,58,1.0,-999.0,96,0.00,,,-99.99,73.800003,,2013-04-27 11:42:00,
2013-04-27 07:52:00,66.0,65.0,-100.00,ENE,58,1.0,-999.0,96,0.00,,,-99.99,73.800003,,2013-04-27 11:52:00,
2013-04-27 08:01:00,67.0,66.0,-100.00,NE,34,2.0,-999.0,96,0.00,,,-99.99,132.800003,,2013-04-27 12:01:00,
2013-04-27 08:11:00,69.0,67.0,-100.00,ENE,60,2.0,-999.0,96,0.00,,,-99.99,181.399994,,2013-04-27 12:11:00,
2013-04-27 08:22:00,69.0,67.0,-100.00,ENE,60,2.0,-999.0,96,0.00,,,-99.99,181.399994,,2013-04-27 12:22:00,
2013-04-27 08:32:00,69.0,68.0,-100.00,ENE,59,3.0,-999.0,95,0.00,,,-99.99,212.100006,,2013-04-27 12:32:00,
2013-04-27 08:42:00,70.0,69.0,-100.00,ENE,63,3.0,-999.0,94,0.00,,,-99.99,246.199997,,2013-04-27 12:42:00,
2013-04-27 08:52:00,70.0,69.0,-100.00,ENE,63,3.0,-999.0,94,0.00,,,-99.99,246.199997,,2013-04-27 12:52:00,
2013-04-27 09:02:00,71.0,69.0,-100.00,ENE,75,5.0,-999.0,92,0.00,,,-99.99,260.000000,,2013-04-27 13:02:00,
2013-04-27 09:12:00,73.0,69.0,-100.00,ENE,73,5.0,-999.0,86,0.00,,,-99.99,354.700012,,2013-04-27 13:12:00,
2013-04-27 09:21:00,73.0,69.0,-100.00,ENE,73,5.0,-999.0,86,0.00,,,-99.99,354.700012,,2013-04-27 13:21:00,
2013-04-27 09:32:00,75.0,68.0,-100.00,ENE,68,5.0,-999.0,79,0.00,,,-99.99,405.799988,,2013-04-27 13:32:00,
2013-04-27 09:42:00,75.0,67.0,-100.00,ENE,75,5.0,-999.0,76,0.00,,,-99.99,311.799988,,2013-04-27 13:42:00,
2013-04-27 09:52:00,75.0,67.0,-100.00,ENE,75,5.0,-999.0,76,0.00,,,-99.99,311.799988,,2013-04-27 13:52:00,
2013-04-27 10:02:00,76.0,67.0,-100.00,ENE,77,5.0,-999.0,74,0.00,,,-99.99,298.000000,,2013-04-27 14:02:00,
2013-04-27 10:11:00,76.0,67.0,-100.00,ENE,73,4.0,-999.0,72,0.00,,,-99.99,361.299988,,2013-04-27 14:11:00,
2013-04-27 10:21:00,76.0,67.0,-100.00,ENE,73,4.0,-999.0,72,0.00,,,-99.99,361.299988,,2013-04-27 14:21:00,
2013-04-27 10:32:00,77.0,66.0,-100.00,ENE,76,5.0,-999.0,70,0.00,,,-99.99,359.299988,,2013-04-27 14:32:00,
2013-04-27 10:42:00,77.0,66.0,-100.00,ENE,59,4.0,-999.0,69,0.00,,,-99.99,383.799988,,2013-04-27 14:42:00,
2013-04-27 10:52:00,77.0,66.0,-100.00,ENE,59,4.0,-999.0,69,0.00,,,-99.99,383.799988,,2013-04-27 14:52:00,
2013-04-27 11:01:00,77.0,66.0,-100.00,NE,52,5.0,-999.0,68,0.00,,,-99.99,354.700012,,2013-04-27 15:01:00,
2013-04-27 11:12:00,79.0,66.0,-100.00,ENE,63,6.0,-999.0,65,0.00,,,-99.99,612.099976,,2013-04-27 15:12:00,
2013-04-27 11:22:00,79.0,66.0,-100.00,ENE,63,6.0,-999.0,65,0.00,,,-99.99,612.099976,,2013-04-27 15:22:00,
2013-04-27 11:33:00,78.0,65.0,-100.00,ENE,64,7.0,-999.0,64,0.00,,,-99.99,379.700012,,2013-04-27 15:33:00,
2013-04-27 11:43:00,80.0,65.0,-100.00,ENE,65,6.0,-999.0,60,0.00,,,-99.99,752.000000,,2013-04-27 15:43:00,
2013-04-27 11:53:00,80.0,65.0,-100.00,ENE,65,6.0,-999.0,60,0.00,,,-99.99,752.000000,,2013-04-27 15:53:00,
2013-04-27 12:03:00,82.0,64.0,-100.00,East,85,6.0,-999.0,54,0.00,,,-99.99,918.000000,,2013-04-27 16:03:00,
2013-04-27 12:13:00,82.0,63.0,-100.00,East,85,7.0,-999.0,52,0.00,,,-99.99,654.299988,,2013-04-27 16:13:00,
2013-04-27 12:22:00,82.0,63.0,-100.00,East,85,7.0,-999.0,52,0.00,,,-99.99,654.299988,,2013-04-27 16:22:00,
2013-04-27 12:32:00,83.0,64.0,-100.00,ENE,73,7.0,-999.0,53,0.00,,,-99.99,854.000000,,2013-04-27 16:32:00,
2013-04-27 12:42:00,82.0,63.0,-100.00,ENE,68,8.0,-999.0,51,0.00,,,-99.99,869.000000,,2013-04-27 16:42:00,
2013-04-27 12:53:00,82.0,63.0,-100.00,ENE,68,8.0,-999.0,51,0.00,,,-99.99,869.000000,,2013-04-27 16:53:00,
2013-04-27 13:02:00,84.0,62.0,-100.00,ESE,103,7.0,-999.0,48,0.00,,,-99.99,980.000000,,2013-04-27 17:02:00,
2013-04-27 13:12:00,85.0,62.0,-100.00,ENE,73,8.0,-999.0,45,0.00,,,-99.99,977.000000,,2013-04-27 17:12:00,
2013-04-27 13:22:00,85.0,62.0,-100.00,ENE,73,8.0,-999.0,45,0.00,,,-99.99,977.000000,,2013-04-27 17:22:00,
2013-04-27 13:32:00,86.0,63.0,-100.00,East,94,6.0,-999.0,45,0.00,,,-99.99,1007.000000,,2013-04-27 17:32:00,
2013-04-27 13:42:00,86.0,63.0,-100.00,ESE,108,7.0,-999.0,45,0.00,,,-99.99,899.000000,,2013-04-27 17:42:00,
2013-04-27 13:53:00,86.0,63.0,-100.00,ESE,108,7.0,-999.0,45,0.00,,,-99.99,899.000000,,2013-04-27 17:53:00,
2013-04-27 14:02:00,85.0,63.0,-100.00,East,79,10.0,-999.0,48,0.00,,,-99.99,941.000000,,2013-04-27 18:02:00,
2013-04-27 14:12:00,83.0,64.0,-100.00,ENE,64,9.0,-999.0,51,0.00,,,-99.99,390.600006,,2013-04-27 18:12:00,
2013-04-27 14:22:00,83.0,64.0,-100.00,ENE,64,9.0,-999.0,51,0.00,,,-99.99,390.600006,,2013-04-27 18:22:00,
2013-04-27 14:32:00,83.0,64.0,-100.00,ENE,64,9.0,-999.0,52,0.00,,,-99.99,558.700012,,2013-04-27 18:32:00,
2013-04-27 14:42:00,83.0,64.0,-100.00,East,83,6.0,-999.0,53,0.00,,,-99.99,394.100006,,2013-04-27 18:42:00,
2013-04-27 14:52:00,83.0,64.0,-100.00,East,83,6.0,-999.0,53,0.00,,,-99.99,394.100006,,2013-04-27 18:52:00,
2013-04-27 15:02:00,83.0,64.0,-100.00,East,93,7.0,-999.0,52,0.00,,,-99.99,378.799988,,2013-04-27 19:02:00,
2013-04-27 15:11:00,82.0,64.0,-100.00,East,101,8.0,-999.0,54,0.00,,,-99.99,223.699997,,2013-04-27 19:11:00,
2013-04-27 15:21:00,82.0,64.0,-100.00,East,101,8.0,-999.0,54,0.00,,,-99.99,223.699997,,2013-04-27 19:21:00,
2013-04-27 15:32:00,80.0,64.0,-100.00,East,92,8.0,-999.0,58,0.00,,,-99.99,254.399994,,2013-04-27 19:32:00,
2013-04-27 15:42:00,82.0,64.0,-100.00,East,90,7.0,-999.0,55,0.00,,,-99.99,461.000000,,2013-04-27 19:42:00,
2013-04-27 15:53:00,82.0,64.0,-100.00,East,90,7.0,-999.0,55,0.00,,,-99.99,461.000000,,2013-04-27 19:53:00,
2013-04-27 16:02:00,83.0,64.0,-100.00,ESE,111,7.0,-999.0,52,0.00,,,-99.99,526.799988,,2013-04-27 20:02:00,
2013-04-27 16:11:00,83.0,63.0,-100.00,ESE,111,7.0,-999.0,49,0.00,,,-99.99,677.700012,,2013-04-27 20:11:00,
2013-04-27 16:21:00,83.0,63.0,-100.00,ESE,111,7.0,-999.0,49,0.00,,,-99.99,677.700012,,2013-04-27 20:21:00,
2013-04-27 16:32:00,83.0,64.0,-100.00,ESE,104,7.0,-999.0,51,0.00,,,-99.99,598.200012,,2013-04-27 20:32:00,
2013-04-27 16:42:00,82.0,64.0,-100.00,East,93,8.0,-999.0,53,0.00,,,-99.99,189.699997,,2013-04-27 20:42:00,
2013-04-27 16:52:00,82.0,64.0,-100.00,East,93,8.0,-999.0,53,0.00,,,-99.99,189.699997,,2013-04-27 20:52:00,
2013-04-27 17:02:00,82.0,64.0,-100.00,East,90,8.0,-999.0,55,0.00,,,-99.99,463.100006,,2013-04-27 21:02:00,
2013-04-27 17:12:00,83.0,63.0,-100.00,East,85,8.0,-999.0,51,0.00,,,-99.99,543.000000,,2013-04-27 21:12:00,
2013-04-27 17:21:00,83.0,63.0,-100.00,East,85,8.0,-999.0,51,0.00,,,-99.99,543.000000,,2013-04-27 21:21:00,
2013-04-27 17:33:00,82.0,64.0,-100.00,East,90,9.0,-999.0,53,0.00,,,-99.99,363.899994,,2013-04-27 21:33:00,
2013-04-27 17:43:00,81.0,64.0,-100.00,East,86,11.0,-999.0,56,0.00,,,-99.99,490.200012,,2013-04-27 21:43:00,
2013-04-27 17:53:00,81.0,64.0,-100.00,East,86,11.0,-999.0,56,0.00,,,-99.99,490.200012,,2013-04-27 21:53:00,
2013-04-27 18:03:00,81.0,63.0,-100.00,East,85,10.0,-999.0,54,0.00,,,-99.99,413.200012,,2013-04-27 22:03:00,
2013-04-27 18:13:00,81.0,63.0,-100.00,East,86,8.0,-999.0,53,0.00,,,-99.99,371.000000,,2013-04-27 22:13:00,
2013-04-27 18:22:00,81.0,63.0,-100.00,East,86,8.0,-999.0,53,0.00,,,-99.99,371.000000,,2013-04-27 22:22:00,
2013-04-27 18:32:00,81.0,63.0,-100.00,East,86,8.0,-999.0,54,0.00,,,-99.99,335.899994,,2013-04-27 22:32:00,
2013-04-27 18:42:00,81.0,62.0,-100.00,ENE,77,10.0,-999.0,53,0.00,,,-99.99,276.000000,,2013-04-27 22:42:00,
2013-04-27 18:53:00,81.0,62.0,-100.00,ENE,77,10.0,-999.0,53,0.00,,,-99.99,276.000000,,2013-04-27 22:53:00,
2013-04-27 19:02:00,80.0,62.0,-100.00,ENE,76,10.0,-999.0,54,0.00,,,-99.99,225.800003,,2013-04-27 23:02:00,
2013-04-27 19:12:00,80.0,62.0,-100.00,East,86,7.0,-999.0,53,0.00,,,-99.99,170.899994,,2013-04-27 23:12:00,
2013-04-27 19:22:00,80.0,62.0,-100.00,East,86,7.0,-999.0,53,0.00,,,-99.99,170.899994,,2013-04-27 23:22:00,
2013-04-27 19:32:00,79.0,61.0,-100.00,East,82,9.0,-999.0,54,0.00,,,-99.99,126.800003,,2013-04-27 23:32:00,
2013-04-27 19:42:00,78.0,62.0,-100.00,East,87,10.0,-999.0,58,0.00,,,-99.99,83.099998,,2013-04-27 23:42:00,
2013-04-27 19:52:00,78.0,62.0,-100.00,East,87,10.0,-999.0,58,0.00,,,-99.99,83.099998,,2013-04-27 23:52:00,
2013-04-27 20:01:00,77.0,65.0,-100.00,ESE,103,8.0,-999.0,66,0.00,,,-99.99,29.500000,,2013-04-28 00:01:00,
2013-04-27 20:12:00,76.0,65.0,-100.00,East,99,7.0,-999.0,68,0.00,,,-99.99,10.000000,,2013-04-28 00:12:00,
2013-04-27 20:21:00,76.0,65.0,-100.00,East,99,7.0,-999.0,68,0.00,,,-99.99,10.000000,,2013-04-28 00:21:00,
2013-04-27 20:32:00,75.0,65.0,-100.00,East,100,6.0,-999.0,70,0.00,,,-99.99,2.100000,,2013-04-28 00:32:00,
2013-04-27 20:43:00,74.0,65.0,-100.00,East,99,5.0,-999.0,71,0.00,,,-99.99,0.000000,,2013-04-28 00:43:00,
2013-04-27 20:52:00,74.0,65.0,-100.00,East,99,5.0,-999.0,71,0.00,,,-99.99,0.000000,,2013-04-28 00:52:00,
2013-04-27 21:02:00,74.0,64.0,-100.00,East,96,5.0,-999.0,72,0.00,,,-99.99,0.000000,,2013-04-28 01:02:00,
2013-04-27 21:11:00,74.0,64.0,-100.00,East,94,6.0,-999.0,72,0.00,,,-99.99,0.000000,,2013-04-28 01:11:00,
2013-04-27 21:22:00,74.0,64.0,-100.00,East,94,6.0,-999.0,72,0.00,,,-99.99,0.000000,,2013-04-28 01:22:00,
2013-04-27 21:32:00,73.0,65.0,-100.00,East,95,6.0,-999.0,74,0.00,,,-99.99,0.000000,,2013-04-28 01:32:00,
2013-04-27 21:42:00,73.0,65.0,-100.00,East,94,5.0,-999.0,75,0.00,,,-99.99,0.000000,,2013-04-28 01:42:00,
2013-04-27 21:52:00,73.0,65.0,-100.00,East,94,5.0,-999.0,75,0.00,,,-99.99,0.000000,,2013-04-28 01:52:00,
2013-04-27 22:02:00,72.0,65.0,-100.00,East,92,4.0,-999.0,77,0.00,,,-99.99,0.000000,,2013-04-28 02:02:00,
2013-04-27 22:12:00,72.0,65.0,-100.00,East,92,5.0,-999.0,78,0.00,,,-99.99,0.000000,,2013-04-28 02:12:00,
2013-04-27 22:22:00,72.0,65.0,-100.00,East,92,5.0,-999.0,78,0.00,,,-99.99,0.000000,,2013-04-28 02:22:00,
2013-04-27 22:32:00,72.0,65.0,-100.00,East,94,5.0,-999.0,79,0.00,,,-99.99,0.000000,,2013-04-28 02:32:00,
2013-04-27 22:42:00,72.0,65.0,-100.00,East,97,6.0,-999.0,80,0.00,,,-99.99,0.000000,,2013-04-28 02:42:00,
2013-04-27 22:52:00,72.0,65.0,-100.00,East,97,6.0,-999.0,80,0.00,,,-99.99,0.000000,,2013-04-28 02:52:00,
2013-04-27 23:01:00,71.0,65.0,-100.00,East,99,4.0,-999.0,81,0.00,,,-99.99,0.000000,,2013-04-28 03:01:00,
2013-04-27 23:11:00,71.0,65.0,-100.00,ESE,103,4.0,-999.0,82,0.00,,,-99.99,0.000000,,2013-04-28 03:11:00,
2013-04-27 23:21:00,71.0,65.0,-100.00,ESE,103,4.0,-999.0,82,0.00,,,-99.99,0.000000,,2013-04-28 03:21:00,
2013-04-27 23:33:00,71.0,65.0,-100.00,East,91,5.0,-999.0,83,0.00,,,-99.99,0.000000,,2013-04-28 03:33:00,
2013-04-27 23:43:00,70.0,65.0,-100.00,East,101,3.0,-999.0,83,0.00,,,-99.99,0.000000,,2013-04-28 03:43:00,
2013-04-27 23:53:00,70.0,65.0,-100.00,East,101,3.0,-999.0,83,0.00,,,-99.99,0.000000,,2013-04-28 03:53:00,